Location: Centerville
(32.8776°N, 96.6203°W)
Time: 13:30:05
(UTC+00:00)

SeaSat 1 - Pass Details

Date: 17 June 2021
Orbit: 745 x 746 km, 108.0° (Epoch: 31 July)

Event Time Altitude Azimuth Distance (km) Brightness Sun altitude
Rises 08:03:35 0° 40° (NE) 3,190 6.8 -29.2°
Reaches altitude 10° 08:06:15 10° 53° (NE) 2,263 5.7 -29.0°
Maximum altitude 08:10:13 24° 108° (ESE) 1,496 4.0 -28.6°
Enters shadow 08:10:14 24° 108° (ESE) 1,496 4.0 -28.6°
